Weather History for Burns, OR

Change the Weather History Date:

Thursday, February 21, 2013

  Actual Average Record
Temperature  
Mean Temperature 28 °F 30 °F  
Max Temperature 37 °F 41 °F 63 °F (1995)
Min Temperature 19 °F 20 °F -4 °F (1952)
Degree Days  
Heating Degree Days 37 35  
Month to date heating degree days 719 781  
Since 1 July heating degree days 5119 5294  
Cooling Degree Days 0 0  
Month to date cooling degree days 0 0  
Year to date cooling degree days 0 0  
Moisture  
Dew Point 22 °F    
Average Humidity 74    
Maximum Humidity 92    
Minimum Humidity 56    
Precipitation  
Precipitation T in 0.04 in 0.42 in (1992)
Month to date precipitation 0.22 0.75  
Year to date precipitation 0.61 1.94  
Sea Level Pressure  
Sea Level Pressure 30.11 in    
Wind  
Wind Speed 6 mph (WSW)    
Max Wind Speed 17 mph    
Max Gust Speed 22 mph    
Visibility 10 miles    
Events      
T = Trace of Precipitation, MM = Missing Value Source: NWS Daily Summary

Daily Weather History Graph

Daily Weather History Graph

Search for Another Location

Airport:

Trip Planner

Search our weather history database for the weather conditions in past years. The results will help you decide how hot, cold, wet, or windy it might be!

Date:

Astronomy

Feb. 21, 2013 Rise Set
Actual Time 6:44 AM PST 5:34 PM PST
Civil Twilight 6:15 AM PST 6:03 PM PST
Nautical Twilight 5:42 AM PST 6:37 PM PST
Astronomical Twilight 5:09 AM PST 7:10 PM PST
Moon 1:49 PM PST (2/21) 3:57 AM PST (2/21)
Length of Visible Light 11h 48m
Length of Day
10h 49m
Waxing Gibbous, 84% of the Moon is Illuminated
Feb 21
Waxing Gibbous
Feb 25
Full
Mar 4
Last Quarter
Mar 11
New
Mar 19
First Quarter

Hourly Weather History & Observations

Time (PST) Temp. Windchill Dew Point Humidity Pressure Visibility Wind Dir Wind Speed Gust Speed Precip Events Conditions
12:53 AM 21.9 °F 15.7 °F 19.0 °F 89% 30.02 in 10.0 mi WSW 4.6 mph - N/A   Clear
1:53 AM 23.0 °F 15.8 °F 19.9 °F 88% 30.04 in 10.0 mi WSW 5.8 mph - N/A   Partly Cloudy
2:53 AM 21.0 °F 16.2 °F 18.0 °F 88% 30.04 in 10.0 mi West 3.5 mph - N/A   Clear
3:53 AM 23.0 °F 15.8 °F 19.9 °F 88% 30.06 in 10.0 mi West 5.8 mph - N/A   Overcast
4:53 AM 23.0 °F 15.8 °F 19.9 °F 88% 30.09 in 10.0 mi West 5.8 mph - N/A   Overcast
5:44 AM 21.2 °F 16.4 °F 19.4 °F 93% 30.02 in 10.0 mi South 3.5 mph - N/A   Mostly Cloudy
5:53 AM 19.9 °F 13.4 °F 17.1 °F 89% 30.12 in 10.0 mi SW 4.6 mph - N/A   Scattered Clouds
6:53 AM 21.0 °F 16.2 °F 18.0 °F 88% 30.13 in 10.0 mi West 3.5 mph - N/A   Clear
7:53 AM 24.1 °F 18.2 °F 21.0 °F 88% 30.14 in 10.0 mi SW 4.6 mph - N/A   Overcast
8:53 AM 28.0 °F 22.8 °F 23.0 °F 81% 30.14 in 10.0 mi West 4.6 mph - N/A   Overcast
9:53 AM 30.9 °F 24.3 °F 23.0 °F 72% 30.13 in 10.0 mi WSW 6.9 mph - N/A   Overcast
10:53 AM 32.0 °F 23.0 °F 19.9 °F 61% 30.14 in 10.0 mi WSW 11.5 mph - N/A   Overcast
11:53 AM 34.0 °F 28.0 °F 19.9 °F 56% 30.13 in 10.0 mi SW 6.9 mph - N/A   Overcast
12:53 PM 34.0 °F 24.2 °F 21.9 °F 61% 30.13 in 10.0 mi SW 15.0 mph - N/A   Mostly Cloudy
1:53 PM 36.0 °F 28.0 °F 21.0 °F 55% 30.10 in 10.0 mi SW 11.5 mph - N/A   Overcast
2:53 PM 35.1 °F 26.4 °F 21.0 °F 57% 30.11 in 10.0 mi SW 12.7 mph - N/A   Overcast
3:53 PM 35.1 °F 27.4 °F 23.0 °F 61% 30.09 in 10.0 mi WSW 10.4 mph - N/A   Overcast
4:53 PM 33.1 °F 24.9 °F 21.9 °F 64% 30.11 in 10.0 mi WSW 10.4 mph - N/A   Overcast
5:53 PM 32.0 °F 27.5 °F 25.0 °F 75% 30.13 in 10.0 mi WSW 4.6 mph - N/A   Overcast
6:53 PM 30.0 °F 22.4 °F 25.0 °F 82% 30.15 in 10.0 mi SW 8.1 mph - N/A   Overcast
7:53 PM 28.0 °F 24.2 °F 24.1 °F 85% 30.16 in 10.0 mi SSW 3.5 mph - N/A   Scattered Clouds
8:53 PM 27.0 °F 19.5 °F 24.1 °F 89% 30.16 in 10.0 mi SW 6.9 mph - N/A   Mostly Cloudy
9:53 PM 28.0 °F 24.2 °F 24.1 °F 85% 30.15 in 10.0 mi WSW 3.5 mph - N/A   Overcast
10:53 PM 30.0 °F - 25.0 °F 82% 30.15 in 10.0 mi Calm Calm - N/A   Overcast
11:53 PM 28.0 °F - 25.0 °F 88% 30.16 in 10.0 mi Calm Calm - 0.00 in   Overcast